This demonstration page uses our WeatherBlox Daily Observations layout. Learn more.

Left ArrowRight Arrow

34.02893, -84.19858

Hourly Observations for January 5, 2018

Temp ( °F °C ) Dew Point ( °F °C ) Humidity (%) Winds ( mph kmh ) Pressure ( in mb ) Visibility ( mi km ) Precip ( " mm )
12:53 am 00:53 Clear 18 -7.8 5 -15 57 57 NW 12 19 30.29 1026 10 16 0.00 0.00
1:53 am 01:53 Clear 18 -7.8 5 -15 57 57 NW 12 19 30.29 1026 10 16 0.00 0.00
2:53 am 02:53 Clear 17 -8.3 4 -15.6 56 56 WNW 12 19 30.30 1026 10 16 0.00 0.00
3:53 am 03:53 Clear 17 -8.3 3 -16.1 54 54 NW 13 20 30.31 1026 10 16 0.00 0.00
4:53 am 04:53 Clear 16 -8.9 2 -16.7 54 54 NW 13 20 30.32 1027 10 16 0.00 0.00
5:53 am 05:53 Clear 16 -8.9 2 -16.7 54 54 NW 13 20 30.34 1028 10 16 0.00 0.00
6:53 am 06:53 Clear 16 -8.9 2 -16.7 54 54 WNW 9 15 30.36 1028 10 16 0.00 0.00
7:53 am 07:53 Sunny 16 -8.9 2 -16.7 54 54 WNW 10 17 30.39 1029 10 16 0.00 0.00
8:53 am 08:53 Sunny 18 -7.8 1 -17.2 47 47 WNW 12 19 30.40 1029 10 16 0.00 0.00
9:53 am 09:53 Sunny 22 -5.6 -1 -18.3 36 36 WNW 10 17 30.40 1030 10 16 0.00 0.00
10:53 am 10:53 Sunny 26 -3.3 -4 -20 26 26 NW 14 22 30.40 1030 10 16 0.00 0.00
11:53 am 11:53 Sunny 28 -2.2 -1 -18.3 28 28 NW 9 15 30.40 1029 10 16 0.00 0.00
12:53 pm 12:53 Sunny 31 -0.6 3 -16.1 30 30 WNW 15 24 30.37 1029 10 16 0.00 0.00
1:53 pm 13:53 Sunny 32 0 3 -16.1 29 29 NW 14 22 30.35 1028 10 16 0.00 0.00
2:53 pm 14:53 Sunny 34 1.1 2 -16.7 25 25 W 14 22 30.34 1028 10 16 0.00 0.00
3:53 pm 15:53 Sunny 34 1.1 1 -17.2 24 24 WNW 14 22 30.35 1028 10 16 0.00 0.00
4:53 pm 16:53 Sunny 33 0.6 3 -16.1 28 28 WNW 12 19 30.36 1028 10 16 0.00 0.00
5:53 pm 17:53 Clear 31 -0.6 4 -15.6 31 31 W 7 11 30.37 1029 10 16 0.00 0.00
6:53 pm 18:53 Clear 29 -1.7 6 -14.4 38 38 W 8 13 30.38 1029 10 16 0.00 0.00
7:53 pm 19:53 Clear 28 -2.2 6 -14.4 39 39 NNW 7 11 30.41 1030 10 16 0.00 0.00
8:53 pm 20:53 Clear 26 -3.3 5 -15 40 40 NNW 6 9 30.42 1030 10 16 0.00 0.00
9:53 pm 21:53 Clear 26 -3.3 5 -15 40 40 NNW 6 9 30.42 1030 10 16 0.00 0.00
10:53 pm 22:53 Clear 26 -3.3 6 -14.4 42 42 NNW 7 11 30.42 1030 10 16 0.00 0.00
11:53 pm 23:53 Clear 26 -3.3 6 -14.4 42 42 NW 9 15 30.42 1030 10 16 0.00 0.00

Powered by AerisWeather